User: anonymous
Location: NJAA Observatory
(40.6819°N, 74.8979°W)
Time: 22:12:19
(UTC-04:00)
Language:

Meteor 1-28 Rocket - Orbit

View from above orbital plane
View from above orbital plane
View from above satellite
View from above satellite

Ground track
Ground track

The orbit data is extracted from the following two-line orbital elements,

1 10114U 77057B   14292.75216573  .00003623  00000-0  20322-3 0  3784
2 10114 097.2530 147.2332 0016815 107.4859 252.8212 15.13841590 36404
Epoch (UTC): 19 October 2014 18:03:07
Eccentricity: 0.0016815
inclination: 97.2530°
perigee height: 513 km
apogee height: 536 km
right ascension of ascending node: 147.2332°
argument of perigee: 107.4859°
revolutions per day: 15.13841590
mean anomaly at epoch: 252.8212°
orbit number at epoch: 3640

The dashed part of the orbit path shows where the satellite is in the earth's shadow,  

DLR